Location: Kershaw
(34.5481°N, 80.5823°W)
Time: 07:12:32
(UTC+00:00)

Explorer 7 - Pass Details

Date: 05 October 2022
Orbit: 481 x 665 km, 50.3° (Epoch: 28 November)

Event Time Altitude Azimuth Distance (km) Brightness Sun altitude
Rises 21:25:16 0° 312° (NW) 2,919 10.9 18.3°
Maximum altitude 21:32:12 75° 39° (NE) 614 7.2 17.0°
Drops below altitude 10° 21:36:27 10° 126° (SE) 1,855 9.2 16.2°
Sets 21:38:37 0° 128° (SE) 2,716 10.0 15.7°
